Regional Weather Roundup
Issued by NWS

Home | Current Version | Previous Version | Text Only | Print | Product List | Glossary On
Versions: 1 2 3 4 5 6 7 8 9 10 11 12 13 14 15 16 17 18 19 20 21 22 23 24 25 26 27 28 29 30 31 32 33 34 35 36 37 38 39 40 41 42 43 44 45 46 47 48 49 50
000
ASUS43 KDMX 271407
RWRIA

WEATHER ROUNDUP FOR IOWA
NATIONAL WEATHER SERVICE DES MOINES IA
900 AM CDT THU AUG 27 2015

NOTE: "FAIR" INDICATES FEW OR NO CLOUDS BELOW 12,000 FEET WITH NO
SIGNIFICANT WEATHER AND/OR OBSTRUCTIONS TO VISIBILITY.

* - THESE STATIONS ARE NOT NWS STATIONS...THUS NOT UNDER NWS
QUALITY CONTROL.  THEY ALSO DO NOT REPORT WEATHER SUCH
AS PRECIPITATION OR FOG.

IAZ001>003-012>014-020>022-031>034-043>046-271500-
   NORTHWEST IOWA

CITY           SKY/WX    TMP DP  RH WIND       PRES   REMARKS
CARROLL *      MOSUNNY   61  59  94 S8        30.06F
CHEROKEE *     TSTM      64  61  88 SW6       30.16R
DENISON *      CLOUDY    63  55  77 NW12      30.09R
LE MARS *      MOSUNNY   64  63  94 VRB3G12   30.04F
ORANGE CITY *  LGT RAIN  64  64 100 SE6       29.99F
SHELDON *      CLOUDY    61  59  94 SE8G17    30.05F
SIOUX CITY     CLOUDY    64  60  87 E10       30.02F
SPENCER        CLOUDY    61  55  81 SE7       30.13R
STORM LAKE *   PTSUNNY   59  57  94 CALM      30.09R
$$

IAZ055>058-069>071-079>083-090>094-271500-
   SOUTHWEST IOWA

CITY           SKY/WX    TMP DP  RH WIND       PRES   REMARKS
ATLANTIC *     CLOUDY    64  57  77 S6        30.09R
AUDUBON *      PTSUNNY   63  57  82 S3        30.09S
CLARINDA *     CLOUDY    64  55  72 CALM      30.10R
COUNCIL BLFS * PTSUNNY   63  59  88 SE20G25   30.03F
CRESTON *      SUNNY     64  57  77 SE9G15    30.10F
HARLAN  *      LGT RAIN  63  63 100 S5        30.11S
LAMONI         PTSUNNY   64  56  75 S7        30.10F
RED OAK *      RAIN      63  59  88 NW6G13    30.12R
SHENANDOAH *   CLOUDY    66  57  72 W5        30.10R
$$

IAZ047>049-059>061-072>074-084-271500-
   CENTRAL IOWA

CITY           SKY/WX    TMP DP  RH WIND       PRES   REMARKS
AMES           CLOUDY    59  56  89 SE7       30.11S
ANKENY *       SUNNY     63  57  82 SE6       30.10S
CHARITON *     SUNNY     63  57  82 SE7       30.11F
DES MOINES     CLOUDY    64  55  72 S9        30.09F
GRINNELL*      CLOUDY    63  55  77 SE8       30.14F
KNOXVILLE *    SUNNY     61  55  82 S6        30.10F
MARSHALLTOWN   CLOUDY    60  56  86 SE9       30.12F
PELLA *        CLOUDY    61  59  94 SE6       30.13F
PERRY *          N/A     63  59  88 SE6       30.08F
$$

IAZ004>006-015-016-023>025-035-036-271500-
   NORTH CENTRAL IOWA

CITY           SKY/WX    TMP DP  RH WIND       PRES   REMARKS
ALGONA *       SUNNY     61  55  82 SE7G14    30.10F
CLARION *      SUNNY     59  55  88 SE9       30.11S
ESTHERVILLE    CLOUDY    58  55  90 SW5       30.11R
FORT DODGE *   CLOUDY    61  54  77 E8        30.10F
MASON CITY     CLOUDY    59  56  89 SE6       30.13F
FOREST CITY *  SUNNY     59  55  88 S6        30.13R
IOWA FALLS *     N/A     61  55  82 SE7       30.13F
$$

IAZ007>011-017>019-026>030-037>042-050>054-066-271500-
   NORTHEAST IOWA

CITY           SKY/WX    TMP DP  RH WIND       PRES   REMARKS
CEDAR RAPIDS   MOSUNNY   61  59  93 S6        30.16S
CHARLES CITY * MOSUNNY   61  57  88 SE7       30.15S
CLINTON *      SUNNY     61  55  82 S7        30.22R
DECORAH *      SUNNY     59  55  88 VRB6      30.16S
DUBUQUE        SUNNY     60  56  86 S10       30.17F
MONTICELLO *   SUNNY     61  57  88 S5        30.17F
OELWEIN *      MOSUNNY   61  57  88 VRB6G12   30.17S
WATERLOO       PTSUNNY   63  56  78 S8        30.13F
$$

IAZ064-065-067-068-078-271500-
   EAST CENTRAL IOWA

CITY           SKY/WX    TMP DP  RH WIND       PRES   REMARKS
DAVENPORT      SUNNY     62  56  80 S6        30.19S
IOWA CITY      MOSUNNY   61  57  87 SE8       30.18S
MT. PLEASANT * MOSUNNY   64  57  77 SE9       30.17S
MUSCATINE *    SUNNY     63  57  82 SE5       30.18S
QUAD CITIES    SUNNY     62  55  77 SE5       30.18S
$$

IAZ062-063-075>077-085>089-095>099-271500-
   SOUTHEAST IOWA

CITY           SKY/WX    TMP DP  RH WIND       PRES   REMARKS
BURLINGTON     SUNNY     62  57  83 S9        30.18R
FAIRFIELD *    SUNNY     63  55  77 SE9       30.15S
FORT MADISON * SUNNY     61  55  82 S8        30.18S
KEOKUK *       SUNNY     63  55  77 SE9       30.16F
OSKALOOSA *      N/A     61  57  88 S5        30.14F
CENTERVILLE *  SUNNY     59  57  94 S7        30.14F
OTTUMWA        PTSUNNY   63  58  83 S8        30.12F
WASHINGTON *     N/A    N/A N/A N/A MISG        N/A
$$

ABBREVIATIONS USED IN REMARKS
   TC - TEMPERATURES IN CELSIUS
  WCI - WIND CHILL INDEX
   HX - HEAT INDEX
  VSB - VISIBILITY
$$



USA.gov is the U.S. government's official web portal to all federal, state and local government web resources and services.